(118343) = 2003 AM81 = 1999 CT27

Discovered at Socorro on 1999-02-10 by LINEAR.

Orbit

Orbit type: Main Belt

Note: WebGL enabled browser required.

epoch2024-03-31.0
epoch JD2460400.5
perihelion date2020-05-13.38916
perihelion JD2458982.88916
argument of perihelion (°)176.10776
ascending node (°)6.13429
inclination (°)13.17485
eccentricity0.2119010
perihelion distance (AU)2.0404414
Tisserand w.r.t. Jupiter3.4
ΔV w.r.t. Earth (km/sec)9.8
semimajor axis (AU)2.5890674
mean anomaly (°)335.38669
mean daily motion (°/day)0.23658590
aphelion distance (AU)3.138
period (years)4.17
P-vector [x]-0.99904355
P-vector [y]-0.04367700
P-vector [z]-0.00207329
Q-vector [x]0.03631498
Q-vector [y]-0.80237068
Q-vector [z]-0.59572016
absolute magnitude15.92
phase slope0.15
uncertainty0
referenceMPEC 2024-E179
observations used1386
oppositions17
arc length (days)9189
first opposition used1999
last opposition used2024
residual rms (arc-secs)0.60
perturbers coarse indicatorM-v
perturbers precise indicator003Ek
first observation date used1999-01-14.0
last observation date used2024-03-12.0
computer nameMPCLINUX
JD of orbit computation2456581.611661
perihelion JD uncertainty (days)5.8131E-05
argument of perihelion uncertainty (°)1.7181E-05
ascending node uncertainty (°)1.4028E-05
inclination uncertainty (°)6.8172E-06
eccentricity uncertainty 9.5220E-08
perihelion distance uncertainty (AU)2.3399E-07
Minimum Orbit Intersection Distances (in AU)
for orbit epoch: 2460400.5, reference: E2024-G77
Mercury1.63581
Venus1.32115
Earth1.04344
Mars0.38781
Jupiter1.81782
Saturn6.25901
Uranus16.3773
Neptune26.726

Observations

1420 total observations over interval: 1999 01 14.45254 – 2024 03 12.228145
These data are available for download (format description).

Date (UT) J2000 RA J2000 Dec Magn Location Ref
1999 01 14.45254 09 47 48.07 +33 58 33.5 18.6   704 – Lincoln Laboratory ETS, New Mexico MPS 82596
1999 01 14.47535 09 47 47.02 +33 58 38.3 18.6   704 – Lincoln Laboratory ETS, New Mexico MPS 82596
1999 01 14.49811 09 47 45.96 +33 58 44.6 18.6   704 – Lincoln Laboratory ETS, New Mexico MPS 82596
1999 01 14.52088 09 47 44.54 +33 58 50.4 19.5   704 – Lincoln Laboratory ETS, New Mexico MPS 82596
1999 02 10.21519 09 19 12.42 +35 00 50.9 18.7   704 – Lincoln Laboratory ETS, New Mexico MPS 3909
1999 02 10.23643 09 19 10.85 +35 00 49.7 19.1   704 – Lincoln Laboratory ETS, New Mexico MPS 3909
1999 02 10.25770 09 19 09.13 +35 00 46.9 18.6   704 – Lincoln Laboratory ETS, New Mexico MPS 3909
1999 02 10.27935 09 19 07.31 +35 00 46.6 19.3   704 – Lincoln Laboratory ETS, New Mexico MPS 3909
1999 02 10.30035 09 19 05.84 +35 00 45.7 18.6   704 – Lincoln Laboratory ETS, New Mexico MPS 3909
1999 02 13.28473 09 15 25.18 +34 55 48.9 18.5   704 – Lincoln Laboratory ETS, New Mexico MPS 3909
1999 02 13.29861 09 15 24.21 +34 55 46.4 18.5   704 – Lincoln Laboratory ETS, New Mexico MPS 3909
1999 02 13.31253 09 15 23.34 +34 55 46.5 18.8   704 – Lincoln Laboratory ETS, New Mexico MPS 3909
1999 02 13.32640 09 15 22.21 +34 55 42.4 18.6   704 – Lincoln Laboratory ETS, New Mexico MPS 3909
1999 02 13.34030 09 15 21.13 +34 55 42.6 18.6   704 – Lincoln Laboratory ETS, New Mexico MPS 3909
1999 02 18.19672 09 09 36.01 +34 41 26.4 18.3 R 699 – Lowell Observatory-LONEOS MPS 58716
1999 02 18.22219 09 09 34.08 +34 41 21.1   699 – Lowell Observatory-LONEOS MPS 58716
1999 02 18.24770 09 09 32.41 +34 41 15.0   699 – Lowell Observatory-LONEOS MPS 58716
2001 09 23.33626 00 56 04.94 +07 38 05.4 19.6   704 – Lincoln Laboratory ETS, New Mexico MPS 82596
2001 09 23.35046 00 56 04.19 +07 38 02.4 20.1   704 – Lincoln Laboratory ETS, New Mexico MPS 82596
2001 09 23.39377 00 56 01.75 +07 37 56.7 20.3   704 – Lincoln Laboratory ETS, New Mexico MPS 82596
2001 09 23.44062 00 55 59.25 +07 37 52.1 21.4 V 691 – Steward Observatory, Kitt Peak-Spacewatch MPS 82596
2001 09 23.44526 00 55 58.95 +07 37 51.7 21.2 V 691 – Steward Observatory, Kitt Peak-Spacewatch MPS 82596
2001 09 23.45007 00 55 58.67 +07 37 51.2 21.1 V 691 – Steward Observatory, Kitt Peak-Spacewatch MPS 82596
2001 10 18.22827 00 32 43.59 +06 35 59.6 20.7   644 – Palomar Mountain/NEAT MPS 82596
2001 10 18.24945 00 32 42.45 +06 35 56.5 20.4   644 – Palomar Mountain/NEAT MPS 82596
2001 10 18.27089 00 32 41.27 +06 35 53.4 20.2   644 – Palomar Mountain/NEAT MPS 82596
2001 11 17.08114 00 13 41.91 +05 47 53.3 21.6 V 691 – Steward Observatory, Kitt Peak-Spacewatch MPS 82596
2001 11 17.10171 00 13 41.50 +05 47 53.0 22.0 V 691 – Steward Observatory, Kitt Peak-Spacewatch MPS 82596
2001 11 17.12234 00 13 41.09 +05 47 52.7 21.6 V 691 – Steward Observatory, Kitt Peak-Spacewatch MPS 82596
2002 12 07.39082 07 46 11.27 +41 47 24.4 19.6   704 – Lincoln Laboratory ETS, New Mexico MPS 71855
2002 12 07.40590 07 46 10.87 +41 47 29.6 19.2   704 – Lincoln Laboratory ETS, New Mexico MPS 71855
2002 12 07.42111 07 46 10.31 +41 47 36.7 19.3   704 – Lincoln Laboratory ETS, New Mexico MPS 71855
2002 12 07.43616 07 46 09.93 +41 47 43.2 19.6   704 – Lincoln Laboratory ETS, New Mexico MPS 71855
2002 12 28.30595 07 28 24.47 +43 55 02.5 18.8   704 – Lincoln Laboratory ETS, New Mexico MPS 71855
2002 12 28.32016 07 28 23.36 +43 55 05.8 19.2   704 – Lincoln Laboratory ETS, New Mexico MPS 71855
2002 12 28.33463 07 28 22.24 +43 55 08.9 19.0   704 – Lincoln Laboratory ETS, New Mexico MPS 71855
2002 12 28.34879 07 28 21.18 +43 55 13.3 19.3   704 – Lincoln Laboratory ETS, New Mexico MPS 71855
2003 01 10.30096 07 11 21.00 +44 27 46.2 19.3   704 – Lincoln Laboratory ETS, New Mexico MPS 71855
2003 01 10.31621 07 11 19.78 +44 27 47.3 19.2   704 – Lincoln Laboratory ETS, New Mexico MPS 71855
2003 01 10.33132 07 11 18.36 +44 27 48.4 19.4   704 – Lincoln Laboratory ETS, New Mexico MPS 71855
2003 01 10.34640 07 11 17.20 +44 27 48.0 18.8   704 – Lincoln Laboratory ETS, New Mexico MPS 71855
2003 01 14.23974 07 06 00.66 +44 27 21.4 19.0   704 – Lincoln Laboratory ETS, New Mexico MPS 71855
2003 01 14.25484 07 05 59.33 +44 27 21.6 19.1   704 – Lincoln Laboratory ETS, New Mexico MPS 71855
2003 01 14.27000 07 05 57.91 +44 27 20.0 18.8   704 – Lincoln Laboratory ETS, New Mexico MPS 71855
2003 01 14.28527 07 05 56.80 +44 27 19.7 19.3   704 – Lincoln Laboratory ETS, New Mexico MPS 71855
2003 01 22.34554 06 55 37.93 +44 10 57.1 19.1   644 – Palomar Mountain/NEAT MPS 71855
2003 01 22.37019 06 55 36.09 +44 10 52.1 19.1   644 – Palomar Mountain/NEAT MPS 71855
2003 01 22.39662 06 55 34.13 +44 10 46.3 19.5   644 – Palomar Mountain/NEAT MPS 71855
2005 08 27.44223 00 29 39.60 -00 14 38.9 20.4 V 691 – Steward Observatory, Kitt Peak-Spacewatch MPS 139997
2005 08 27.45461 00 29 39.11 -00 14 40.2 20.7 V 691 – Steward Observatory, Kitt Peak-Spacewatch MPS 139997
2005 08 27.46699 00 29 38.62 -00 14 41.1 21.0 V 691 – Steward Observatory, Kitt Peak-Spacewatch MPS 139997
2005 09 03.322937 00 24 46.714 -00 27 36.84 20.61 V 645 – Apache Point-Sloan Digital Sky Survey MPS 389886
2005 09 03.32330 00 24 46.71 -00 27 36.8 21.4   705 – Apache Point MPS 211656
2005 09 03.32413 00 24 46.67 -00 27 36.8 20.6 V 705 – Apache Point MPS 211656
2005 09 03.326409 00 24 46.549 -00 27 37.25 21.48   645 – Apache Point-Sloan Digital Sky Survey MPS 389886
2005 09 09.332777 00 19 53.682 -00 41 29.97 20.34 V 645 – Apache Point-Sloan Digital Sky Survey MPS 389886
2005 09 09.336249 00 19 53.505 -00 41 30.41 21.05   645 – Apache Point-Sloan Digital Sky Survey MPS 389886
2005 09 11.40160 00 18 06.28 -00 46 40.8 20.7 V 691 – Steward Observatory, Kitt Peak-Spacewatch MPS 141557
2005 09 11.41900 00 18 05.35 -00 46 43.4 20.5 V 691 – Steward Observatory, Kitt Peak-Spacewatch MPS 141557
2005 09 11.43641 00 18 04.41 -00 46 46.1 20.4 V 691 – Steward Observatory, Kitt Peak-Spacewatch MPS 141557
2005 09 13.293577 00 16 25.959 -00 51 34.01 20.66 V 645 – Apache Point-Sloan Digital Sky Survey MPS 389886
2005 09 13.297049 00 16 25.761 -00 51 34.62 21.23   645 – Apache Point-Sloan Digital Sky Survey MPS 389886
2005 09 15.27757 00 14 38.57 -00 56 47.4 20.9   705 – Apache Point MPS 211657
2005 09 15.27840 00 14 38.53 -00 56 47.5 20.3 V 705 – Apache Point MPS 211657
2005 09 21.274757 00 09 04.615 -01 12 56.43 19.93 V 645 – Apache Point-Sloan Digital Sky Survey MPS 389886
2005 09 21.278229 00 09 04.422 -01 12 56.91 20.48   645 – Apache Point-Sloan Digital Sky Survey MPS 389886
2005 10 25.20590 23 41 00.31 -02 17 03.4 20.5 V G96 – Mt. Lemmon Survey MPS 145771
2005 10 25.21298 23 41 00.09 -02 17 03.3 20.6 V G96 – Mt. Lemmon Survey MPS 145771
2005 10 25.22005 23 40 59.84 -02 17 03.6 20.8 V G96 – Mt. Lemmon Survey MPS 145771
2005 10 25.22713 23 40 59.59 -02 17 03.9 21.2 V G96 – Mt. Lemmon Survey MPS 145771
2005 12 01.192457 23 34 41.087 -01 15 31.68 21.29 V 645 – Apache Point-Sloan Digital Sky Survey MPS 389886
2005 12 01.195929 23 34 41.125 -01 15 30.96 21.99   645 – Apache Point-Sloan Digital Sky Survey MPS 389886
2006 12 11.25771 05 21 22.16 +43 30 12.9 19.8   704 – Lincoln Laboratory ETS, New Mexico MPS 195156
2006 12 11.26972 05 21 21.23 +43 30 13.8 19.5   704 – Lincoln Laboratory ETS, New Mexico MPS 195156
2006 12 11.28208 05 21 20.20 +43 30 15.3 19.6   704 – Lincoln Laboratory ETS, New Mexico MPS 195156
2006 12 11.29430 05 21 19.18 +43 30 16.7 19.5   704 – Lincoln Laboratory ETS, New Mexico MPS 195157
2009 09 24.30527 23 16 40.98 -10 16 39.5 20.4 V G96 – Mt. Lemmon Survey MPS 296607
2009 09 24.31362 23 16 40.47 -10 16 40.4 20.7 V G96 – Mt. Lemmon Survey MPS 296607
2009 09 24.32212 23 16 39.97 -10 16 41.3 20.6 V G96 – Mt. Lemmon Survey MPS 296607
2009 09 24.33051 23 16 39.54 -10 16 42.1 20.6 V G96 – Mt. Lemmon Survey MPS 296607
2009 11 18.12124 22 55 19.70 -08 53 57.4 20.6 V G96 – Mt. Lemmon Survey MPS 304402
2009 11 18.12832 22 55 19.77 -08 53 55.7 20.5 V G96 – Mt. Lemmon Survey MPS 304402
2009 11 18.13545 22 55 19.84 -08 53 53.7 21.1 V G96 – Mt. Lemmon Survey MPS 304402
2009 11 18.14256 22 55 19.92 -08 53 52.5 20.9 V G96 – Mt. Lemmon Survey MPS 304402
2010 11 02.44059 04 11 40.09 +36 45 51.4 19.8 V G96 – Mt. Lemmon Survey MPS 354811
